Preview of NWS' New Version of Forecast
This preview is not operational and should not be used for support decisions.

Regional Weather Roundup (RWR)

Issued by National Weather Service (NWS)

                            
000
ASUS43 KMKX 181220
RWRWI 

WISCONSIN REGIONAL WEATHER ROUNDUP
NATIONAL WEATHER SERVICE MILWAUKEE/SULLIVAN WI
700 AM CDT TUE JUN 18 2019

NOTE: "FAIR" INDICATES FEW OR NO CLOUDS BELOW 12,000 FEET WITH NO
SIGNIFICANT WEATHER AND/OR OBSTRUCTIONS TO VISIBILITY.

WIZ001-002-006>008-014>016-023>028-181300-
NORTHWEST WISCONSIN
  
CITY           SKY/WX    TMP DP  RH WIND       PRES   REMARKS
SUPERIOR ARPT  CLOUDY    51  48  91 CALM      29.96S                  
6HR MIN TEMP:  42; 6HR MAX TEMP:  50;                                

ASHLAND        CLOUDY    53  53 100 CALM      29.96S                  
6HR MIN TEMP:  50; 6HR MAX TEMP:  53;                                

HAYWARD        CLOUDY    53  53 100 CALM      29.97S                  
6HR MIN TEMP:  46; 6HR MAX TEMP:  52;                                

SIREN          FAIR      54  52  92 CALM      29.96F                  
6HR MIN TEMP:  44; 6HR MAX TEMP:  51;                                

CUMBERLAND     FAIR      52  52 100 CALM      29.97S                  
RICE LAKE      FAIR      54  49  81 CALM      29.98S                  
6HR MIN TEMP:  50; 6HR MAX TEMP:  59;                                

CHETEK         FAIR      55  55 100 CALM      29.97S                  
6HR MIN TEMP:  50; 6HR MAX TEMP:  60;                                

LADYSMITH      FAIR      56  56 100 CALM      29.98S                  
6HR MIN TEMP:  51; 6HR MAX TEMP:  61;                                

EAU CLAIRE     FAIR      60  57  89 N3        29.95S                  
6HR MIN TEMP:  56; 6HR MAX TEMP:  63; 6HR PCP:  0.05;                

MENOMONIE      FAIR      56  52  87 CALM      29.97S                  
6HR MIN TEMP:  52; 6HR MAX TEMP:  61;                                

NEW RICHMOND   FAIR      58  57  99 CALM      29.98R                  
6HR MIN TEMP:  51; 6HR MAX TEMP:  59;                                

OSCEOLA        FAIR      53  53  98 CALM      30.00S                  
6HR MIN TEMP:  49; 6HR MAX TEMP:  60;                                

$$
 
WIZ003>005-009-010-017-018-181300-
NORTH CENTRAL WISCONSIN
  
CITY           SKY/WX    TMP DP  RH WIND       PRES   REMARKS
MANITOWISH WTR CLOUDY    55  55 100 CALM      29.95S                  
6HR MIN TEMP:  48; 6HR MAX TEMP:  53;                                

ARBOR VITAE    PTSUNNY   59  56  90 CALM      29.95S FOG              
6HR MIN TEMP:  57; 6HR MAX TEMP:  59;                                

WOODRUFF       PTSUNNY   59  56  90 CALM      29.95S FOG              
6HR MIN TEMP:  57; 6HR MAX TEMP:  59;                                

RHINELANDER    NOT AVBL                                               
EAGLE RIVER    CLOUDY    60  59  95 SW5       29.95S                  
6HR MIN TEMP:  54; 6HR MAX TEMP:  60;                                

LAND O LAKES   CLOUDY    59  58  99 CALM      29.97S                  
6HR MIN TEMP:  51; 6HR MAX TEMP:  58;                                

PHILLIPS       PTSUNNY   55  55 100 CALM      29.96S                  
6HR MIN TEMP:  52; 6HR MAX TEMP:  58;                                

TOMAHAWK       CLOUDY    59  58  97 CALM      29.96F                  
6HR MIN TEMP:  58; 6HR MAX TEMP:  59;                                

MEDFORD        CLOUDY    59  58  97 CALM      29.96S FOG              
6HR MIN TEMP:  58; 6HR MAX TEMP:  60; 6HR PCP:  0.17;                

MERRILL        CLOUDY    61  61 100 CALM      29.96S                  
6HR MIN TEMP:  59; 6HR MAX TEMP:  64;                                

$$
 
WIZ029-030-035-036-043>047-181300-
CENTRAL WISCONSIN
  
CITY           SKY/WX    TMP DP  RH WIND       PRES   REMARKS
WAUSAU         CLOUDY    61  58  90 MISG      29.94                   
MOSINEE        CLOUDY    61  61 100 CALM      29.97S                  
MARSHFIELD     NOT AVBL                                               
STEVENS POINT  CLOUDY    61  61 100 CALM      29.96S                  
6HR MIN TEMP:  58; 6HR MAX TEMP:  62;                                

WAUPACA        CLOUDY    63  61  94 CALM      29.95F                  
6HR MIN TEMP:  62; 6HR MAX TEMP:  64;                                

WAUTOMA        NOT AVBL                                               
WISC RAPIDS    NOT AVBL                                               
CAMP DOUGLAS   CLOUDY    63  63 100 VRB7      29.95S                  
                                      6HR PCP:  0.01;                

$$
 
WIZ011>013-019>022-031-037>040-048>050-181300-
NORTHEAST WISCONSIN
  
CITY           SKY/WX    TMP DP  RH WIND       PRES   REMARKS
ANTIGO         CLOUDY    59  59 100 CALM      29.96S FOG              
6HR MIN TEMP:  58; 6HR MAX TEMP:  61; 6HR PCP:  0.13;                

SHAWANO        CLOUDY    63  58  82 CALM      29.95S                  
6HR MIN TEMP:  62; 6HR MAX TEMP:  63;                                

OCONTO         CLOUDY    58  56  92 CALM      29.95S                  
6HR MIN TEMP:  57; 6HR MAX TEMP:  58;                                

STURGEON BAY   LGT RAIN  57  52  83 CALM      29.97                   
6HR MIN TEMP:  55; 6HR MAX TEMP:  57; 6HR PCP: TRACE;                

GREEN BAY      CLOUDY    59  56  89 CALM      29.96S                  
6HR MIN TEMP:  57; 6HR MAX TEMP:  60; 6HR PCP:  0.04;                

MANITOWOC      CLOUDY    56  53  90 CALM      29.97S                  
6HR MIN TEMP:  51; 6HR MAX TEMP:  56;                                

APPLETON       CLOUDY    61  54  77 CALM      29.95S                  
CLINTONVILLE   CLOUDY    61  57  88 CALM      29.94F                  
6HR MIN TEMP:  60; 6HR MAX TEMP:  62;                                

OSHKOSH        NOT AVBL                                               
$$
 
WIZ032>034-041-042-053>061-181300-
SOUTHWEST WISCONSIN
  
CITY           SKY/WX    TMP DP  RH WIND       PRES   REMARKS
LA CROSSE      CLOUDY    67  63  87 CALM      29.95S                  
6HR MIN TEMP:  65; 6HR MAX TEMP:  68;                                

SPARTA         CLOUDY    57  56  97 CALM      29.96S                  
6HR MIN TEMP:  53; 6HR MAX TEMP:  57;                                

VIROQUA        CLOUDY    63  63 100 SW3       29.97S                  
6HR MIN TEMP:  61; 6HR MAX TEMP:  63;                                

BOSCOBEL       CLOUDY    62  59  90 CALM      29.97S                  
6HR MIN TEMP:  57; 6HR MAX TEMP:  62;                                

PRAIRIE DU CHI CLOUDY    63  61  94 CALM      29.97S                  
6HR MIN TEMP:  60; 6HR MAX TEMP:  63;                                

PLATTEVILLE    CLOUDY    61  61 100 CALM      29.99R                  
6HR MIN TEMP:  58; 6HR MAX TEMP:  61;                                

$$

WIZ056-057-062-063-064-067-068-181300-
SOUTH CENTRAL WISCONSIN
  
CITY           SKY/WX    TMP DP  RH WIND       PRES   REMARKS
REEDSBURG      CLOUDY    61  61 100 CALM      29.96S                  
6HR MIN TEMP:  58; 6HR MAX TEMP:  61;                                

BARABOO/DELLS  CLOUDY    62  60  94 CALM      29.96F                  
6HR MIN TEMP:  59; 6HR MAX TEMP:  61;                                

LONE ROCK      CLOUDY    60  59  96 CALM      29.97S                  
6HR MIN TEMP:  57; 6HR MAX TEMP:  60;                                

MINERAL POINT  PTSUNNY   61  61 100 CALM      29.98S FOG              
MADISON        PTSUNNY   62  60  93 CALM      29.96S FOG              
6HR MIN TEMP:  56; 6HR MAX TEMP:  63;                                

MIDDLETON      CLOUDY    61  61 100 CALM      29.97F                  
6HR MIN TEMP:  55; 6HR MAX TEMP:  61;                                

WATERTOWN      FAIR      58  58 100 S3        29.97S FOG              
6HR MIN TEMP:  53; 6HR MAX TEMP:  57;                                

MONROE         FAIR      60  58  96 CALM      29.98R                  
6HR MIN TEMP:  58; 6HR MAX TEMP:  61;                                

JANESVILLE     CLOUDY    57  57 100 CALM      29.97S FOG              
$$
 
WIZ051-052-058>065-066-070>072-181300-
SOUTHEAST WISCONSIN
  
CITY           SKY/WX    TMP DP  RH WIND       PRES   REMARKS
MILWAUKEE      FOG       57  55  93 SW5       29.98S VSB 1/8          
6HR MIN TEMP:  51; 6HR MAX TEMP:  57;                                

WAUKESHA       FOG       52  52 100 SE3       29.99S VSB 1/4          
MILWAUKEE/TIMM PTSUNNY   54  50  87 S5        29.99F FOG              
RACINE         CLOUDY    59  56  89 CALM      29.99F                  
6HR MIN TEMP:  50; 6HR MAX TEMP:  59;                                

KENOSHA        FOG       58  58 100 CALM      29.98S VSB 1/4          
6HR MIN TEMP:  51; 6HR MAX TEMP:  58;                                

FOND DU LAC    CLOUDY    61  57  87 S5        29.96S                  
6HR MIN TEMP:  57; 6HR MAX TEMP:  61;                                

SHEBOYGAN      FAIR      56  53  90 S5        29.97R                  
6HR MIN TEMP:  50; 6HR MAX TEMP:  56;                                

WEST BEND      FAIR      55  54  94 CALM      29.97F                  
JUNEAU         CLOUDY    57  56  97 CALM      29.98S FOG              
6HR MIN TEMP:  55; 6HR MAX TEMP:  58;                                

$$

LSZ147-162-181300-
LAKE SUPERIOR
  
STATION/POSITION TIME  TEMP    WIND        PRES    WAVE
                       AIR SEA DIR/SP/G            HT/PER
                 (UTC) (F)     (DEG/KT/KT) (MB)    (FT/S)
W MID LAKE BUOY  1150   41 38   30/  4/  6 1014.8R   1
$$
 
LMZ867-665-643>646-181300-
LAKE MICHIGAN
  
STATION/POSITION TIME  TEMP    WIND        PRES    WAVE
                       AIR SEA DIR/SP/G            HT/PER
                 (UTC) (F)     (DEG/KT/KT) (MB)    (FT/S)
S GREEN BAY BUOY 1200   60 62  140/  2/  2 1014.6
N MID LAKE BUOY  1200   46 39  260/  6/  8 1016.1
NORTHPORT PIER   1140   56     130/  2/  2 1014.6S
KEWAUNEE LAKESHO 1130   56      CALM  /  1 1013.9F
SHEBOYGAN LAKESH 1200   56     170/  5/  6 1014.8R
ATWATER BUOY     1200   54 52  180/  2/  4 1015.5    0
MILWAUKEE LAKESH 1150   54     230/  5/  5   N/A
S MID LAKE BUOY  1200   47 45  310/  2/  4 1016.1
KENOSHA   LAKESH